sat.trackr.live / text

‹ back to catalog

STARLINK-6111

NORAD 57102 · 2023-090B

PAYLOAD ACTIVE UNKNOWN

§ Identity

Operator
Country
US
Launch date
2023-06-23
Launch site
AFETR
Launch vehicle
Mass (kg)
RCS (m²)

Purposes: comms

External: N2YO · Heavens-Above · Gunter

§ Orbital elements

Epoch: 2026-05-24T21:02:34.841760Z

Period
94.32 min
Inclination
43.0038°
Eccentricity
0.0001312
Mean motion
15.26740674 rev/d
Perigee alt
484.7 km
Apogee alt
486.5 km
Semi-major
6,863.7 km
B*
-4.0855e-7
RAAN
211.3406°
Arg perigee
270.4270°
Mean anomaly
89.6431°
Rev number
16,198

§ Raw data

STARLINK-61111 57102U 23090B   26144.87679215 -.00000271  00000+0 -40855-6 0  99902 57102  43.0038 211.3406 0001312 270.4270  89.6431 15.26740674161989

JSON: /api/v1/satellites/57102 · /tle

For live sub-satellite position, see the globe view (requires WebGL).

§ Visibility from observer

Set your observer location to see the next 7 days of passes ≥ 10°. The values pass through the URL so the page stays shareable.

No JS? Fill the form by hand. The geolocation button needs JavaScript.